Location: Burbank
(38.7788°N, 114.0429°W)
Time: 22:57:16
(UTC+00:00)

Transit 2A - Pass Details

Date: 11 May 2026
Orbit: 595 x 949 km, 66.7° (Epoch: 5 June)

Event Time Altitude Azimuth Distance (km) Brightness Sun altitude
Rises 22:39:40 0° 171° (S) 3,601 9.5 44.6°
Reaches altitude 10° 22:42:43 10° 158° (SSE) 2,651 8.8 44.0°
Maximum altitude 22:47:31 24° 107° (ESE) 1,818 7.8 43.1°
Drops below altitude 10° 22:52:10 10° 56° (NE) 2,563 8.4 42.2°
Sets 22:55:03 0° 43° (NE) 3,456 9.0 41.6°
